Location: Noordwijk
(52.2400°N, 4.4500°E)
Time: 10:44:40
(UTC+00:00)

HuskySat-1 - Visible Passes

Search period start: 30 November 2022 00:00
Search period end: 10 December 2022 00:00
Orbit: 364 x 379 km, 51.6° (Epoch: 29 November)

Date Brightness Start Highest point End Pass type
(mag) Time Alt. Az. Time Alt. Az. Time Alt. Az.
02 Dec ? 18:00:39 10° SSW 18:01:44 17° S 18:01:44 17° S visible
03 Dec ? 16:58:30 10° S 17:00:09 14° SE 17:01:03 13° ESE visible
03 Dec ? 18:32:24 10° WSW 18:33:00 15° SW 18:33:00 15° SW visible
04 Dec ? 17:29:17 10° SW 17:32:00 30° SSE 17:32:06 30° SSE visible
05 Dec ? 16:26:28 10° S 16:28:35 18° SE 16:30:43 10° E visible
05 Dec ? 18:00:52 10° WSW 18:02:55 36° SW 18:02:55 36° SW visible
06 Dec ? 16:57:19 10° SW 17:00:08 37° SSE 17:01:37 22° ESE visible
06 Dec ? 18:32:37 10° W 18:33:32 18° W 18:33:32 18° W visible
07 Dec ? 17:28:40 10° WSW 17:31:41 65° SSE 17:32:03 57° SE visible
08 Dec ? 16:24:41 10° SW 16:27:36 44° SSE 16:30:24 11° E visible
08 Dec ? 18:00:06 10° W 18:02:17 43° W 18:02:17 43° W visible
09 Dec ? 16:55:48 10° WSW 16:58:50 72° S 17:00:29 24° E visible
09 Dec ? 18:31:23 10° W 18:32:21 18° W 18:32:21 18° W visible
